• In Latvia
  • List of Countries
  • For 7 days
  • Water Temperature
  • Satellite Maps
  • Weather Map
  • Weather Widgets
  • user-avatar
    Login

    Hourly Weather Shkoder

    Today, 20 October, Friday

    Time Temperature Precipitation Wind Pressure Humidity
    00:00 +16°C° 0 mm 1 mps 741 mmHg 60%
    01:00 +16°C° 0 mm 1 mps 742 mmHg 57%
    02:00 +15°C° 0 mm 1 mps 742 mmHg 57%
    03:00 +15°C° 0 mm 1 mps 742 mmHg 56%
    04:00 +15°C° 0 mm 1 mps 742 mmHg 55%
    05:00 +15°C° 0 mm 1 mps 742 mmHg 56%
    06:00 +16°C° 0 mm 1 mps 742 mmHg 56%
    07:00 +18°C° 0 mm 1 mps 742 mmHg 55%
    08:00 +20°C° 0 mm 1 mps 742 mmHg 51%
    09:00 +21°C° 0 mm 1 mps 742 mmHg 48%
    10:00 +23°C° 0 mm 1 mps 742 mmHg 45%
    11:00 +24°C° 0 mm 1 mps 742 mmHg 45%
    12:00 +24°C° 0 mm 2 mps 742 mmHg 44%
    13:00 +24°C° 0 mm 2 mps 742 mmHg 46%
    14:00 +24°C° 0 mm 2 mps 742 mmHg 50%
    15:00 +23°C° 0 mm 1 mps 742 mmHg 54%
    16:00 +22°C° 0 mm 1 mps 742 mmHg 58%
    17:00 +21°C° 0 mm 1 mps 742 mmHg 64%
    18:00 +19°C° 0 mm 1 mps 742 mmHg 69%
    19:00 +16°C° 0 mm 1 mps 742 mmHg 75%
    20:00 +16°C° 0 mm 1 mps 743 mmHg 74%
    21:00 +16°C° 0 mm 1 mps 743 mmHg 74%
    22:00 +15°C° 0 mm 1 mps 743 mmHg 74%
    23:00 +15°C° 0 mm 1 mps 743 mmHg 72%

    Tomorrow, 21 October, Saturday

    Time Temperature Precipitation Wind Pressure Humidity
    00:00 +15°C° 0 mm 1 mps 743 mmHg 71%
    01:00 +15°C° 0 mm 1 mps 743 mmHg 70%
    02:00 +15°C° 0 mm 1 mps 743 mmHg 69%
    03:00 +14°C° 0 mm 1 mps 743 mmHg 68%
    04:00 +14°C° 0 mm 1 mps 742 mmHg 67%
    05:00 +15°C° 0 mm 1 mps 743 mmHg 66%
    06:00 +15°C° 0 mm 1 mps 743 mmHg 64%
    07:00 +15°C° 0 mm 1 mps 743 mmHg 63%
    08:00 +18°C° 0 mm 1 mps 743 mmHg 58%
    09:00 +20°C° 0 mm 1 mps 743 mmHg 53%
    10:00 +22°C° 0 mm 1 mps 743 mmHg 47%
    11:00 +23°C° 0 mm 1 mps 742 mmHg 47%
    12:00 +23°C° 0 mm 2 mps 742 mmHg 47%
    13:00 +24°C° 0 mm 2 mps 742 mmHg 46%
    14:00 +23°C° 0 mm 2 mps 741 mmHg 52%
    15:00 +21°C° 0 mm 2 mps 741 mmHg 58%
    16:00 +20°C° 0 mm 2 mps 741 mmHg 64%
    17:00 +19°C° 0 mm 2 mps 741 mmHg 72%
    18:00 +17°C° 0 mm 2 mps 741 mmHg 80%
    19:00 +16°C° 0 mm 1 mps 742 mmHg 88%
    20:00 +15°C° 0 mm 1 mps 742 mmHg 88%
    21:00 +15°C° 0 mm 1 mps 742 mmHg 89%
    22:00 +15°C° 0 mm 1 mps 742 mmHg 89%
    23:00 +15°C° 0 mm 1 mps 742 mmHg 89%

    Day after tomorrow, 22 October, Sunday

    Time Temperature Precipitation Wind Pressure Humidity
    00:00 +14°C° 0 mm 1 mps 742 mmHg 88%
    01:00 +14°C° 0 mm 1 mps 741 mmHg 87%
    02:00 +14°C° 0 mm 1 mps 741 mmHg 87%
    03:00 +14°C° 0 mm 1 mps 741 mmHg 86%
    04:00 +14°C° 0 mm 1 mps 741 mmHg 85%
    05:00 +14°C° 0 mm 1 mps 741 mmHg 83%
    06:00 +14°C° 0 mm 1 mps 741 mmHg 82%
    07:00 +15°C° 0 mm 1 mps 741 mmHg 80%
    08:00 +16°C° 0 mm 1 mps 741 mmHg 75%
    09:00 +19°C° 0 mm 1 mps 740 mmHg 70%
    10:00 +20°C° 0 mm 2 mps 740 mmHg 65%
    11:00 +20°C° 0 mm 2 mps 740 mmHg 66%
    12:00 +21°C° 0 mm 2 mps 739 mmHg 66%
    13:00 +21°C° 0 mm 2 mps 739 mmHg 67%
    14:00 +20°C° 0 mm 2 mps 738 mmHg 71%
    15:00 +20°C° 0 mm 2 mps 738 mmHg 75%
    16:00 +19°C° 0 mm 2 mps 738 mmHg 80%
    17:00 +18°C° 0 mm 2 mps 738 mmHg 84%
    18:00 +17°C° 0 mm 2 mps 737 mmHg 88%
    19:00 +16°C° 0 mm 2 mps 737 mmHg 92%
    20:00 +16°C° 0.2 mm 2 mps 737 mmHg 91%
    21:00 +16°C° 0.2 mm 2 mps 737 mmHg 90%
    22:00 +16°C° 0.2 mm 2 mps 737 mmHg 88%
    23:00 +16°C° 0.8 mm 3 mps 736 mmHg 89%

    23 October, Monday

    Time Temperature Precipitation Wind Pressure Humidity
    00:00 +16°C° 0.8 mm 3 mps 735 mmHg 89%
    01:00 +16°C° 0.8 mm 3 mps 735 mmHg 89%
    02:00 +16°C° 1.7 mm 3 mps 734 mmHg 89%
    03:00 +16°C° 1.7 mm 3 mps 734 mmHg 89%
    04:00 +16°C° 1.7 mm 3 mps 733 mmHg 89%
    05:00 +16°C° 0.5 mm 3 mps 733 mmHg 89%
    06:00 +16°C° 0.5 mm 3 mps 733 mmHg 89%
    07:00 +16°C° 0.5 mm 3 mps 733 mmHg 89%
    08:00 +16°C° 0.4 mm 3 mps 733 mmHg 85%
    09:00 +17°C° 0.4 mm 3 mps 733 mmHg 81%
    10:00 +17°C° 0.4 mm 3 mps 733 mmHg 77%
    11:00 +17°C° 1.1 mm 3 mps 732 mmHg 77%
    12:00 +17°C° 1.1 mm 3 mps 732 mmHg 76%
    13:00 +17°C° 1.1 mm 3 mps 732 mmHg 75%
    14:00 +16°C° 1.5 mm 3 mps 732 mmHg 78%
    15:00 +14°C° 1.5 mm 3 mps 732 mmHg 80%
    16:00 +15°C° 1.5 mm 2 mps 732 mmHg 83%
    17:00 +14°C° 1.1 mm 2 mps 732 mmHg 83%
    18:00 +12°C° 1.1 mm 3 mps 732 mmHg 83%
    19:00 +12°C° 1.1 mm 3 mps 732 mmHg 83%
    20:00 +11°C° 0.5 mm 3 mps 732 mmHg 82%
    21:00 +11°C° 0.5 mm 3 mps 733 mmHg 82%
    22:00 +11°C° 0.5 mm 4 mps 733 mmHg 81%
    23:00 +10°C° 0.3 mm 4 mps 733 mmHg 81%

    24 October, Tuesday

    Time Temperature Precipitation Wind Pressure Humidity
    00:00 +10°C° 0.3 mm 4 mps 733 mmHg 81%
    01:00 +10°C° 0.3 mm 4 mps 733 mmHg 80%
    02:00 +10°C° 0.2 mm 4 mps 733 mmHg 80%
    03:00 +10°C° 0.2 mm 4 mps 732 mmHg 80%
    04:00 +10°C° 0.2 mm 4 mps 732 mmHg 80%
    05:00 +10°C° 0.1 mm 4 mps 733 mmHg 80%
    06:00 +10°C° 0.1 mm 4 mps 733 mmHg 79%
    07:00 +10°C° 0.1 mm 4 mps 733 mmHg 79%
    08:00 +11°C° 0.1 mm 4 mps 733 mmHg 74%
    09:00 +12°C° 0.1 mm 4 mps 733 mmHg 70%
    10:00 +13°C° 0.1 mm 4 mps 733 mmHg 65%
    11:00 +13°C° 0.3 mm 4 mps 733 mmHg 66%
    12:00 +13°C° 0.3 mm 4 mps 733 mmHg 66%
    13:00 +13°C° 0.3 mm 4 mps 733 mmHg 67%
    14:00 +13°C° 0.1 mm 4 mps 733 mmHg 68%
    15:00 +12°C° 0.1 mm 5 mps 733 mmHg 69%
    16:00 +12°C° 0.1 mm 5 mps 733 mmHg 70%
    17:00 +12°C° 0 mm 5 mps 733 mmHg 72%
    18:00 +10°C° 0 mm 5 mps 734 mmHg 73%
    19:00 +10°C° 0 mm 5 mps 734 mmHg 75%
    20:00 +10°C° 0 mm 5 mps 734 mmHg 75%
    21:00 +12°C° 0 mm 5 mps 734 mmHg 74%
    22:00 +12°C° 0 mm 5 mps 735 mmHg 74%
    23:00 +12°C° 0 mm 5 mps 735 mmHg 75%

    25 October, Wednesday

    Time Temperature Precipitation Wind Pressure Humidity
    00:00 +12°C° 0 mm 5 mps 735 mmHg 76%
    01:00 +12°C° 0 mm 5 mps 735 mmHg 77%
    02:00 +12°C° 0 mm 5 mps 736 mmHg 77%
    03:00 +12°C° 0 mm 5 mps 736 mmHg 78%
    04:00 +10°C° 0 mm 5 mps 736 mmHg 78%
    05:00 +12°C° 0 mm 5 mps 737 mmHg 78%
    06:00 +12°C° 0 mm 5 mps 737 mmHg 77%
    07:00 +11°C° 0 mm 6 mps 738 mmHg 77%
    08:00 +13°C° 0 mm 6 mps 738 mmHg 74%
    09:00 +14°C° 0 mm 6 mps 739 mmHg 70%
    10:00 +15°C° 0 mm 6 mps 739 mmHg 67%
    11:00 +15°C° 0 mm 6 mps 739 mmHg 65%
    12:00 +15°C° 0 mm 6 mps 740 mmHg 64%
    13:00 +16°C° 0 mm 6 mps 740 mmHg 62%
    14:00 +15°C° 0 mm 6 mps 740 mmHg 64%
    15:00 +14°C° 0 mm 6 mps 740 mmHg 66%
    16:00 +13°C° 0 mm 6 mps 741 mmHg 68%
    17:00 +13°C° 0 mm 6 mps 741 mmHg 70%
    18:00 +12°C° 0 mm 5 mps 742 mmHg 72%
    19:00 +10°C° 0 mm 5 mps 742 mmHg 74%
    20:00 +9°C° 0 mm 5 mps 743 mmHg 75%
    21:00 +9°C° 0 mm 5 mps 743 mmHg 75%
    22:00 +10°C° 0 mm 4 mps 744 mmHg 76%
    23:00 +8°C° 0 mm 4 mps 744 mmHg 76%
    Show more